AirNav   Pilot Hours Calculator
 
 1621 users online  

73II Nulltown Wingnuts Ultralight Flightpark
Connersville, Indiana, USA

GOING TO CONNERSVILLE?


FAA INFORMATION EFFECTIVE 25 MARCH 2021

Location

FAA Identifier: 73II
Lat/Long: 39-34-18.0000N 085-09-31.0000W
39-34.300000N 085-09.516667W
39.5716667,-85.1586111
(estimated)
Elevation: 765 ft. / 233 m (estimated)
Variation: 03W (1990)
From city: 5 miles S of CONNERSVILLE, IN
Time zone: UTC -4 (UTC -5 during Standard Time)
Zip code: 47331

Ultralight Flight Park Operations

Ultralight Flight Park use: Private use. Permission required prior to landing
Activation date: 11/1994
Control tower: no
ARTCC: INDIANAPOLIS CENTER
FSS: TERRE HAUTE FLIGHT SERVICE STATION
Attendance: UNATNDD
Wind indicator: yes
Segmented circle: no

Ultralight Flight Park Communications

WX AWOS-3 at CEV (8 nm N): 118.325 (765-827-6649)
WX AWOS-3 at HLB (14 nm S): 122.725 (812-933-0108)
WX AWOS-3PT at OXD (18 nm E): 118.625 (513-273-2032)
WX AWOS-3 at RID (18 nm NE): 121.225 (765-983-1903)

Nearby radio navigation aids

VOR radial/distance  VOR name  Freq  Var
SHBr096/31.0SHELBYVILLE VOR/DME112.0001E
CVGr332/39.5CINCINNATI VORTAC117.3004W

 
NDB name  Hdg/Dist  Freq  Var  ID
PNTHR190/12.422704WSQ ... --.-
BATESVILLE024/14.325405WHLB .... .-.. -...
NEW CASTLE164/19.938506WUWL ..- .-- .-..
HOOK FIELD282/33.223904WHKF .... -.- ..-.

Ultralight Flight Park Services

Runway Information

Runway NE/SW

Dimensions: 2000 x 60 ft. / 610 x 18 m
Surface: turf
RUNWAY NE  RUNWAY SW
Traffic pattern: leftleft
Obstructions: none60 ft. trees, 800 ft. from runway

Ultralight Flight Park Ownership and Management from official FAA records

Ownership: Privately-owned
Owner: NULLTOWN WINGNUTS
BOX 1025 W CR 480S
CONNERSVILLE, IN 47331
Phone 317-825-6898
Manager: G. DOUG HOWARD
1025 W COUNTY ROAD 480 S
CONNERVILLE, IN 47331-8902
Phone (765) 821-1562
HOME: 765-821-1562

Ultralight Flight Park Operational Statistics

Aircraft based on the field: 7
Single engine airplanes: 4
Ultralights: 3
    

Additional Remarks

FOR CD CTC CINCINNATI APCH AT 859-372-6440

Instrument Procedures

There are no published instrument procedures at 73II.

Some nearby airports with instrument procedures:

KCEV - Mettel Field Airport (8 nm N)
KOXD - Miami University Airport (18 nm E)
KRID - Richmond Municipal Airport (18 nm NE)
KUWL - New Castle Henry County Airport / Marlatt Field (20 nm NW)
I34 - Greensburg Municipal Airport (22 nm SW)
 
Loc | Ops | Rwys | IFR | FBO | Links
Com | Nav | Svcs | Stats | Notes
Area around 73II (Nulltown Wingnuts Ultralight Flightpark)
 
Road maps at: MapQuest Bing Google
 
Aerial photo
No photo
 
Sectional chart

 
Airport distance calculator
Flying to Nulltown Wingnuts Ultralight Flightpark? Find the distance to fly.

From to 73II

Sunrise and sunset
Times for 19-Apr-2021
 Local
(UTC-4)
 Zulu
(UTC)
Morning civil twilight06:3010:30
Sunrise06:5910:59
Sunset20:2100:21
Evening civil twilight20:4900:49

Current date and time
Zulu (UTC)  19-Apr-2021 20:16:22
Local (UTC-4)  19-Apr-2021 16:16:22
 
METAR
KHLB 
14nm S 
191955Z AUTO 24007G13KT 210V320 10SM BKN065 18/02 A2986 RMK A01
KOXD 
18nm E 
191859Z AUTO 26016KT 10SM BKN070 18/04 A2987 RMK AO2
KRID 
18nm NE 
191955Z AUTO 27018G23KT 10SM SCT065 17/06 A2986 RMK AO2
KI67 
26nm SE 
191955Z AUTO 26010G16KT 10SM BKN075 19/01 A2987 RMK AO1
TAF
KCVG 
39nm SE 
191730Z 1918/2024 26012G18KT P6SM SCT060 FM200000 24010KT P6SM FEW080 FM200500 30005KT P6SM SCT120 FM200700 35005KT P6SM SCT120 FM201300 VRB04KT P6SM SCT100 FM201500 19006KT P6SM SCT100 FM201800 22010KT P6SM SCT100
KLUK 
45nm SE 
191730Z 1918/2018 26012G18KT P6SM SCT060 FM200000 24008KT P6SM FEW080 FM200500 30005KT P6SM SCT120 FM200700 36005KT P6SM SCT120 FM201300 VRB04KT P6SM SCT100 FM201500 19006KT P6SM SCT100
KDAY 
48nm NE 
191730Z 1918/2018 25014G22KT P6SM SCT060 FM200000 27010KT P6SM SCT100 SCT250 FM200300 30008KT P6SM SCT080 SCT250 FM200500 33008KT P6SM BKN080 FM201000 36005KT P6SM BKN060 FM201500 08004KT P6SM BKN035 FM201600 12004KT P6SM BKN035
NOTAMs
Click for the latest NOTAMs
NOTAMs are issued by the DoD/FAA and will open in a separate window not controlled by AirNav.

 

 
 

Would you like to see your business listed on this page?

 If your business provides an interesting product or service to pilots, flight crews, aircraft, or users of the Nulltown Wingnuts Ultralight Flightpark, you should consider listing it here.  To start the listing process, click on the button below
 
Add a business
 

Other Pages about Nulltown Wingnuts Ultralight Flightpark

Update a link
 
Copyright © AirNav, LLC. All rights reserved. Privacy Policy  Contact